• In Netherlands
  • List of Countries
  • For 7 days
  • Water Temperature
  • Satellite Maps
  • Weather Map
  • Weather Widgets
  • user-avatar
    Login

    Hourly Weather Ropotamo

    Today, 21 August, Monday

    Time Temperature Precipitation Wind Pressure Humidity
    00:00 +23°C° 0 mm 2 mps 754 mmHg 89%
    01:00 +23°C° 0 mm 2 mps 754 mmHg 91%
    02:00 +22°C° 0 mm 1 mps 754 mmHg 94%
    03:00 +21°C° 0 mm 2 mps 754 mmHg 94%
    04:00 +21°C° 0 mm 2 mps 754 mmHg 95%
    05:00 +21°C° 0 mm 2 mps 754 mmHg 95%
    06:00 +24°C° 0.3 mm 2 mps 754 mmHg 88%
    07:00 +25°C° 0.3 mm 2 mps 754 mmHg 82%
    08:00 +26°C° 0.3 mm 2 mps 754 mmHg 75%
    09:00 +27°C° 0.2 mm 3 mps 754 mmHg 67%
    10:00 +29°C° 0.2 mm 3 mps 754 mmHg 60%
    11:00 +30°C° 0.2 mm 3 mps 754 mmHg 52%
    12:00 +30°C° 0.4 mm 3 mps 753 mmHg 51%
    13:00 +31°C° 0.4 mm 3 mps 753 mmHg 50%
    14:00 +31°C° 0.4 mm 3 mps 753 mmHg 49%
    15:00 +31°C° 0 mm 3 mps 753 mmHg 48%
    16:00 +31°C° 0 mm 2 mps 752 mmHg 47%
    17:00 +30°C° 0 mm 2 mps 752 mmHg 47%
    18:00 +29°C° 0 mm 2 mps 752 mmHg 51%
    19:00 +27°C° 0 mm 2 mps 753 mmHg 56%
    20:00 +26°C° 0 mm 3 mps 753 mmHg 61%
    21:00 +25°C° 0.1 mm 4 mps 753 mmHg 64%
    22:00 +23°C° 0.1 mm 5 mps 753 mmHg 67%
    23:00 +22°C° 0.1 mm 7 mps 754 mmHg 70%

    Tomorrow, 22 August, Tuesday

    Time Temperature Precipitation Wind Pressure Humidity
    00:00 +22°C° 0 mm 7 mps 754 mmHg 69%
    01:00 +22°C° 0 mm 7 mps 754 mmHg 68%
    02:00 +21°C° 0 mm 7 mps 754 mmHg 67%
    03:00 +21°C° 0.1 mm 7 mps 754 mmHg 71%
    04:00 +20°C° 0.1 mm 7 mps 754 mmHg 75%
    05:00 +18°C° 0.1 mm 7 mps 754 mmHg 79%
    06:00 +18°C° 0.2 mm 7 mps 755 mmHg 79%
    07:00 +18°C° 0.2 mm 7 mps 755 mmHg 78%
    08:00 +18°C° 0.2 mm 7 mps 756 mmHg 78%
    09:00 +20°C° 0 mm 7 mps 756 mmHg 71%
    10:00 +22°C° 0 mm 7 mps 756 mmHg 65%
    11:00 +23°C° 0 mm 7 mps 757 mmHg 58%
    12:00 +24°C° 0 mm 7 mps 757 mmHg 54%
    13:00 +24°C° 0 mm 6 mps 756 mmHg 50%
    14:00 +26°C° 0 mm 6 mps 756 mmHg 46%
    15:00 +26°C° 0 mm 5 mps 756 mmHg 46%
    16:00 +26°C° 0 mm 5 mps 756 mmHg 45%
    17:00 +26°C° 0 mm 5 mps 756 mmHg 45%
    18:00 +23°C° 0 mm 4 mps 756 mmHg 51%
    19:00 +21°C° 0 mm 3 mps 757 mmHg 57%
    20:00 +19°C° 0 mm 3 mps 757 mmHg 62%
    21:00 +19°C° 0 mm 2 mps 757 mmHg 64%
    22:00 +18°C° 0 mm 2 mps 757 mmHg 66%
    23:00 +17°C° 0 mm 2 mps 757 mmHg 67%

    Day after tomorrow, 23 August, Wednesday

    Time Temperature Precipitation Wind Pressure Humidity
    00:00 +17°C° 0 mm 2 mps 757 mmHg 67%
    01:00 +17°C° 0 mm 2 mps 758 mmHg 67%
    02:00 +17°C° 0 mm 2 mps 758 mmHg 67%
    03:00 +17°C° 0 mm 2 mps 758 mmHg 67%
    04:00 +17°C° 0 mm 2 mps 758 mmHg 68%
    05:00 +16°C° 0 mm 2 mps 758 mmHg 68%
    06:00 +19°C° 0 mm 3 mps 758 mmHg 62%
    07:00 +21°C° 0 mm 3 mps 758 mmHg 57%
    08:00 +24°C° 0 mm 3 mps 758 mmHg 51%
    09:00 +26°C° 0 mm 3 mps 758 mmHg 43%
    10:00 +28°C° 0 mm 3 mps 758 mmHg 36%
    11:00 +29°C° 0 mm 2 mps 759 mmHg 29%
    12:00 +30°C° 0 mm 3 mps 758 mmHg 26%
    13:00 +31°C° 0 mm 3 mps 758 mmHg 23%
    14:00 +33°C° 0 mm 4 mps 758 mmHg 21%
    15:00 +32°C° 0 mm 4 mps 758 mmHg 22%
    16:00 +32°C° 0 mm 4 mps 758 mmHg 23%
    17:00 +32°C° 0 mm 4 mps 758 mmHg 23%
    18:00 +28°C° 0 mm 4 mps 758 mmHg 33%
    19:00 +25°C° 0 mm 4 mps 758 mmHg 42%
    20:00 +22°C° 0 mm 3 mps 759 mmHg 52%
    21:00 +21°C° 0 mm 3 mps 759 mmHg 54%
    22:00 +21°C° 0 mm 3 mps 759 mmHg 56%
    23:00 +20°C° 0 mm 2 mps 759 mmHg 58%

    24 August, Thursday

    Time Temperature Precipitation Wind Pressure Humidity
    00:00 +20°C° 0 mm 2 mps 759 mmHg 58%
    01:00 +19°C° 0 mm 2 mps 759 mmHg 58%
    02:00 +19°C° 0 mm 2 mps 759 mmHg 58%
    03:00 +18°C° 0 mm 2 mps 759 mmHg 58%
    04:00 +18°C° 0 mm 2 mps 759 mmHg 58%
    05:00 +17°C° 0 mm 2 mps 759 mmHg 58%
    06:00 +19°C° 0 mm 3 mps 759 mmHg 51%
    07:00 +21°C° 0 mm 3 mps 760 mmHg 43%
    08:00 +25°C° 0 mm 3 mps 760 mmHg 36%
    09:00 +26°C° 0 mm 3 mps 760 mmHg 32%
    10:00 +28°C° 0 mm 2 mps 760 mmHg 28%
    11:00 +30°C° 0 mm 2 mps 760 mmHg 24%
    12:00 +31°C° 0 mm 3 mps 760 mmHg 22%
    13:00 +33°C° 0 mm 3 mps 760 mmHg 21%
    14:00 +33°C° 0 mm 3 mps 760 mmHg 19%
    15:00 +33°C° 0 mm 3 mps 760 mmHg 21%
    16:00 +32°C° 0 mm 4 mps 760 mmHg 23%
    17:00 +32°C° 0 mm 4 mps 760 mmHg 25%
    18:00 +28°C° 0 mm 4 mps 760 mmHg 36%
    19:00 +25°C° 0 mm 3 mps 760 mmHg 48%
    20:00 +21°C° 0 mm 3 mps 761 mmHg 59%
    21:00 +21°C° 0 mm 2 mps 761 mmHg 64%
    22:00 +20°C° 0 mm 2 mps 761 mmHg 70%
    23:00 +19°C° 0 mm 2 mps 761 mmHg 75%

    25 August, Friday

    Time Temperature Precipitation Wind Pressure Humidity
    00:00 +20°C° 0 mm 1 mps 761 mmHg 77%
    01:00 +20°C° 0 mm 1 mps 761 mmHg 79%
    02:00 +20°C° 0 mm 1 mps 761 mmHg 81%
    03:00 +19°C° 0 mm 1 mps 761 mmHg 82%
    04:00 +18°C° 0 mm 2 mps 761 mmHg 83%
    05:00 +18°C° 0 mm 2 mps 761 mmHg 84%
    06:00 +20°C° 0 mm 2 mps 762 mmHg 75%
    07:00 +23°C° 0 mm 2 mps 762 mmHg 66%
    08:00 +25°C° 0 mm 3 mps 762 mmHg 57%
    09:00 +27°C° 0 mm 3 mps 762 mmHg 49%
    10:00 +28°C° 0 mm 4 mps 762 mmHg 41%
    11:00 +30°C° 0 mm 4 mps 762 mmHg 33%
    12:00 +30°C° 0 mm 5 mps 762 mmHg 32%
    13:00 +32°C° 0 mm 5 mps 762 mmHg 31%
    14:00 +32°C° 0 mm 5 mps 762 mmHg 29%
    15:00 +30°C° 0 mm 5 mps 762 mmHg 31%
    16:00 +30°C° 0 mm 5 mps 761 mmHg 33%
    17:00 +29°C° 0 mm 5 mps 761 mmHg 35%
    18:00 +27°C° 0 mm 5 mps 762 mmHg 45%
    19:00 +23°C° 0 mm 4 mps 762 mmHg 56%
    20:00 +21°C° 0 mm 4 mps 762 mmHg 66%
    21:00 +21°C° 0 mm 4 mps 762 mmHg 69%
    22:00 +20°C° 0 mm 3 mps 762 mmHg 72%
    23:00 +20°C° 0 mm 3 mps 762 mmHg 74%

    26 August, Saturday

    Time Temperature Precipitation Wind Pressure Humidity
    00:00 +19°C° 0 mm 3 mps 762 mmHg 76%
    01:00 +19°C° 0 mm 3 mps 762 mmHg 77%
    02:00 +19°C° 0 mm 3 mps 762 mmHg 78%
    03:00 +19°C° 0 mm 4 mps 762 mmHg 79%
    04:00 +19°C° 0 mm 4 mps 762 mmHg 81%
    05:00 +18°C° 0 mm 4 mps 762 mmHg 82%
    06:00 +20°C° 0 mm 4 mps 762 mmHg 73%
    07:00 +22°C° 0 mm 5 mps 762 mmHg 65%
    08:00 +25°C° 0 mm 5 mps 762 mmHg 56%
    09:00 +27°C° 0 mm 5 mps 762 mmHg 50%
    10:00 +28°C° 0 mm 6 mps 762 mmHg 44%
    11:00 +30°C° 0 mm 6 mps 762 mmHg 38%
    12:00 +30°C° 0 mm 6 mps 762 mmHg 37%
    13:00 +30°C° 0 mm 6 mps 762 mmHg 36%
    14:00 +32°C° 0 mm 7 mps 761 mmHg 35%
    15:00 +30°C° 0 mm 7 mps 761 mmHg 38%
    16:00 +29°C° 0 mm 7 mps 761 mmHg 41%
    17:00 +28°C° 0 mm 6 mps 761 mmHg 43%
    18:00 +26°C° 0 mm 6 mps 761 mmHg 54%
    19:00 +23°C° 0 mm 5 mps 761 mmHg 64%
    20:00 +21°C° 0 mm 5 mps 762 mmHg 74%
    21:00 +21°C° 0 mm 4 mps 761 mmHg 78%
    22:00 +20°C° 0 mm 4 mps 761 mmHg 82%
    23:00 +20°C° 0 mm 4 mps 761 mmHg 85%
    Show more